Theta_e
317 317 318 318 317 317 320 321 327 327 325 324 322 326 324 322 327 325 325 325 326 326 327 327 326 329 329 332 334 335 335 335 336 337 341 339 334 334 332 331 329 330 328 321 317 313 309 309 308 318 327 330 331 334 336 336 336 336 336 336 336 335 334 329 322 318 315 312 310 310 311 311 311 312 312 312 312 312 311 312 312 311 312 311 311 311 313 314 313 312 311 311 311 311 312 315 317
316 317 318 317 317 318 322 323 330 332 330 324 320 324 322 320 325 326 328 326 328 329 331 330 329 331 330 331 332 333 335 336 335 335 337 335 335 334 332 330 329 330 326 320 316 312 309 308 310 322 332 334 335 335 336 336 336 336 336 336 336 334 332 328 319 314 312 310 310 311 311 311 311 312 312 312 312 312 312 312 312 312 311 311 311 311 311 311 311 312 313 313 311 313 316 319 320
316 317 318 318 319 319 323 323 330 331 326 327 327 327 322 322 328 328 325 325 330 330 329 329 330 330 331 334 334 334 336 336 335 335 335 335 336 333 330 329 330 331 324 318 315 310 309 308 311 323 332 334 334 335 336 335 336 335 335 335 334 333 330 325 317 312 310 310 311 310 310 311 311 312 311 311 311 311 311 311 311 312 311 311 311 311 311 310 312 314 316 315 314 316 320 320 318
317 317 317 317 320 322 325 325 334 334 324 327 327 325 326 327 328 323 323 328 330 327 327 330 332 331 333 337 335 335 336 336 335 335 335 336 335 332 329 330 333 329 322 317 313 310 309 308 311 321 330 334 335 335 335 335 335 334 334 333 332 330 325 319 314 312 310 312 310 312 315 312 311 312 311 311 311 311 311 311 311 311 310 311 310 310 310 309 313 316 317 318 318 319 320 317 314
317 318 317 317 320 323 325 324 330 329 323 329 325 325 330 330 326 321 322 327 325 324 327 332 335 332 333 335 334 336 337 336 335 335 335 335 334 331 330 332 333 327 320 316 312 309 309 308 310 320 327 331 334 334 335 335 334 333 332 331 329 324 318 313 310 311 311 312 312 317 319 312 310 311 312 313 312 310 310 311 310 310 310 311 310 311 310 310 313 316 317 320 321 320 319 316 313
317 318 317 316 320 321 324 324 325 327 326 330 329 329 329 326 324 321 321 322 322 325 329 331 333 332 334 335 335 336 336 336 335 335 334 334 333 330 331 333 331 324 318 315 311 309 309 308 311 319 323 327 332 333 334 334 333 332 331 330 325 317 313 310 310 316 315 310 316 322 319 313 313 311 313 313 311 310 311 312 311 311 310 311 311 310 310 309 313 316 318 319 320 317 316 314 315
317 318 317 318 320 320 328 326 329 333 323 323 330 330 324 321 321 320 321 322 323 325 328 330 329 332 335 334 334 335 334 334 334 334 334 334 332 331 332 332 330 322 317 314 310 309 309 308 310 315 319 322 328 332 333 333 332 330 330 327 320 313 312 310 312 321 319 315 322 325 320 317 314 310 311 311 310 310 311 314 314 312 310 310 310 310 310 308 313 318 318 319 318 315 314 314 315
319 320 317 322 323 323 330 325 329 332 317 315 323 325 322 321 320 320 321 322 323 326 330 329 327 332 334 333 334 335 334 333 334 334 334 334 332 331 331 332 328 320 317 313 310 310 309 308 308 311 316 318 322 328 332 332 330 327 325 322 317 313 312 310 311 319 320 321 323 323 321 320 314 309 309 309 310 309 309 312 312 311 310 310 310 310 310 310 315 318 317 317 316 313 314 314 315
318 320 318 322 324 327 334 327 323 323 318 319 320 321 321 321 320 319 320 320 323 328 330 328 327 332 334 333 335 335 333 333 334 334 334 334 333 332 332 332 327 319 316 312 310 310 309 309 308 309 313 316 318 322 329 330 328 324 321 318 315 312 310 309 310 313 318 321 320 320 322 319 314 310 309 309 309 309 309 310 310 311 311 311 311 311 311 311 316 318 315 314 314 313 314 314 315
318 319 318 322 326 324 327 329 325 320 319 320 320 321 321 321 320 318 320 321 323 325 326 326 327 332 335 334 335 335 334 334 333 333 334 334 333 332 332 333 328 319 316 314 312 311 310 310 309 309 309 313 315 318 324 327 326 322 316 313 313 311 310 309 309 311 315 318 316 317 318 316 313 309 309 309 309 310 310 311 311 312 313 313 312 312 312 312 314 315 313 313 313 314 314 314 315
319 318 319 326 328 322 324 332 332 324 319 318 319 320 321 321 318 318 319 320 321 322 324 326 331 333 334 334 335 335 335 334 332 331 332 333 333 332 332 333 329 319 317 317 315 313 311 310 309 310 309 309 312 315 320 324 324 321 314 313 313 311 310 309 312 314 313 314 315 316 315 314 312 309 309 308 309 310 311 312 313 314 314 314 313 313 313 313 313 313 313 313 313 313 313 313 314
318 321 329 333 327 324 328 329 327 324 320 320 320 320 321 319 317 318 319 320 320 323 324 325 331 332 333 334 335 335 336 335 331 329 331 332 332 332 332 334 330 320 318 319 318 317 314 311 310 310 310 310 310 311 314 319 321 319 315 313 312 310 310 309 311 313 311 311 313 313 312 311 310 309 308 308 309 311 313 314 314 315 314 314 314 314 314 314 313 313 313 313 313 313 313 313 313
319 323 332 329 324 326 326 324 323 324 322 321 320 320 321 317 317 319 319 320 321 324 324 323 326 329 333 334 335 336 337 335 331 329 331 332 332 333 333 335 331 322 318 320 319 319 317 314 311 310 310 311 310 309 310 315 317 316 314 311 310 310 309 309 309 309 309 309 310 310 309 309 309 308 308 309 311 313 315 315 315 315 316 316 315 315 315 314 313 313 313 313 313 313 313 314 314
319 322 328 324 322 326 326 323 321 322 324 322 318 318 320 316 317 319 320 320 320 322 323 324 324 327 334 334 335 336 336 336 332 329 331 333 333 334 334 335 333 324 319 320 320 320 319 317 313 311 310 310 310 310 310 313 314 313 311 310 310 309 309 309 309 309 309 309 309 309 308 308 308 309 310 312 314 315 315 315 316 317 317 317 317 316 315 315 315 315 315 315 315 315 316 316 316
319 319 327 327 323 323 324 323 321 323 325 322 317 317 318 316 318 319 320 321 319 319 321 327 326 326 332 333 334 334 335 336 333 329 330 334 334 334 335 334 334 329 320 319 321 321 320 319 316 312 310 310 310 310 310 311 312 311 311 311 310 309 309 309 309 309 308 308 308 308 308 308 309 310 312 314 316 316 316 317 318 318 319 319 318 318 317 317 317 317 317 318 318 318 318 318 318
320 319 326 328 323 323 322 320 320 324 323 318 316 317 317 316 318 318 319 319 320 322 324 329 327 325 325 326 324 326 334 336 334 331 329 333 334 334 335 334 335 331 324 320 320 321 321 321 319 314 312 312 312 312 312 312 312 313 313 313 312 311 310 309 309 309 309 308 308 308 308 308 309 312 314 316 316 316 317 318 319 320 320 319 319 319 318 318 318 319 319 318 318 318 318 318 318
318 320 327 326 325 326 325 321 318 323 324 317 315 316 317 316 317 318 318 318 322 325 326 328 328 325 324 323 320 325 334 335 335 332 331 333 333 334 336 335 335 333 328 321 319 321 321 322 321 318 315 315 315 315 316 316 316 317 317 316 315 313 312 311 310 309 309 309 308 308 308 309 311 314 316 317 317 317 317 318 319 320 320 320 320 320 319 319 319 319 319 319 319 318 319 319 319
319 326 327 324 329 329 326 324 317 319 322 316 315 316 317 317 317 317 318 320 322 324 324 326 328 325 324 325 323 328 334 335 335 333 332 332 332 333 334 336 335 333 330 324 319 319 321 321 322 320 318 318 318 318 319 320 321 321 321 320 319 316 314 313 312 312 310 310 309 309 309 311 313 315 317 317 317 318 318 319 319 320 320 320 320 320 320 320 320 320 320 320 320 320 320 320 320
322 325 323 328 335 327 320 319 315 316 318 315 315 316 316 317 317 317 320 323 324 326 327 326 327 324 323 326 325 329 334 335 334 332 331 331 330 330 331 333 334 334 331 326 321 319 320 320 321 321 321 320 320 320 321 321 322 322 322 322 322 321 319 317 316 314 312 312 312 312 312 313 315 316 317 318 318 318 318 319 319 319 320 320 320 320 320 320 320 320 321 321 321 320 320 320 320
319 318 323 334 329 319 317 316 315 316 316 315 315 315 315 317 318 317 320 323 322 325 328 327 327 325 324 327 326 330 335 335 334 332 331 330 329 328 327 328 329 331 330 327 324 320 319 319 320 321 321 322 322 322 321 321 322 322 323 323 323 323 323 322 320 318 316 315 314 314 314 314 315 316 317 317 318 318 318 319 319 319 319 319 320 320 320 320 320 320 320 320 320 320 320 320 320
317 317 325 329 318 315 318 315 315 316 316 316 315 316 315 316 317 317 319 322 321 320 322 322 323 322 323 327 326 330 335 335 334 333 332 331 331 329 327 326 325 327 329 329 327 323 321 319 319 320 320 321 322 322 322 322 322 322 323 323 324 324 324 324 323 323 321 320 319 317 316 316 316 316 317 317 318 318 318 319 319 319 319 319 319 319 319 320 320 320 320 320 320 320 320 320 320
315 317 320 319 314 315 318 314 315 315 316 316 314 316 317 316 316 316 318 321 321 319 318 317 317 317 320 324 325 328 333 334 334 333 333 332 331 330 329 329 328 327 328 330 328 325 323 320 320 320 320 320 321 322 322 322 323 323 324 323 324 324 324 325 324 324 324 323 322 321 320 319 318 318 318 317 318 318 318 318 318 318 319 319 319 319 319 319 319 319 319 319 319 319 319 319 319
315 317 315 316 315 315 316 314 315 315 316 316 314 316 316 315 315 316 317 319 318 317 318 318 317 317 317 320 322 325 330 332 332 331 331 331 330 328 328 328 328 327 327 328 328 327 325 322 320 321 321 321 321 321 322 322 322 322 323 323 324 324 324 324 325 325 325 324 324 323 323 322 322 321 320 319 319 319 319 319 319 319 319 319 319 319 319 319 319 319 319 319 319 319 319 319 319
314 317 315 315 316 314 316 315 314 316 315 316 315 316 315 315 317 315 316 318 317 317 317 317 317 317 319 320 320 320 323 326 328 327 327 328 328 327 326 326 327 328 327 326 327 328 326 324 322 321 323 323 322 322 322 322 322 322 322 322 322 323 323 323 324 324 324 324 324 325 324 323 323 323 322 321 321 322 321 321 322 322 321 320 321 321 320 320 320 319 319 319 319 320 320 319 320
314 316 315 314 316 315 315 314 314 315 315 315 315 315 315 315 315 314 315 317 316 316 316 317 317 319 320 320 320 319 320 323 325 326 327 328 328 329 328 327 327 328 328 327 327 328 326 324 322 321 322 324 324 324 323 323 323 323 322 322 322 322 322 322 323 323 323 323 324 324 324 324 324 324 323 322 322 323 323 323 324 325 324 323 323 323 323 323 323 322 321 320 320 321 321 320 321
312 312 312 311 314 315 315 314 314 315 315 315 315 314 314 314 314 314 316 317 316 316 315 316 317 319 320 320 320 320 321 322 323 324 326 327 329 330 329 328 328 328 328 327 327 327 327 325 323 322 321 323 325 325 324 324 324 323 322 321 322 322 322 322 323 322 323 323 323 323 324 324 323 324 324 323 324 324 325 325 325 325 325 325 325 325 325 325 325 325 324 324 323 323 323 323 323
311 310 310 310 312 314 314 314 314 315 315 314 315 315 313 312 314 316 316 315 315 316 315 316 316 318 318 320 321 321 320 320 320 321 324 326 328 328 328 328 328 327 327 327 326 326 327 326 324 323 322 322 324 324 323 324 324 323 322 322 322 322 322 323 323 323 323 322 323 323 324 324 323 323 323 323 323 324 325 326 326 326 326 326 326 326 326 326 327 327 327 327 326 326 326 326 326
311 311 311 312 312 313 314 313 313 314 314 314 314 314 312 313 314 316 315 315 315 315 316 316 316 317 317 318 320 321 321 319 321 322 322 322 323 324 325 326 327 327 327 327 326 325 326 326 325 324 323 323 323 323 323 324 323 323 322 322 323 322 323 323 323 323 323 323 323 323 323 323 323 323 323 323 323 324 325 325 326 326 326 326 326 327 327 327 327 328 328 328 327 327 327 327 326
311 310 312 315 313 314 314 313 313 314 314 314 313 314 314 315 315 315 314 314 315 315 316 316 316 317 317 318 319 320 320 320 323 322 319 317 318 320 321 323 324 325 326 326 326 325 325 325 325 324 324 323 323 323 323 323 324 323 323 322 323 323 323 323 322 322 323 323 323 323 323 323 323 322 323 323 323 324 324 325 325 326 327 327 327 327 327 328 328 328 328 327 327 326 326 325 325
312 310 312 316 315 316 315 312 313 314 313 314 313 316 318 317 314 314 315 314 315 316 316 316 317 318 318 318 319 319 320 321 322 319 317 317 317 318 318 320 322 323 324 325 325 325 324 324 324 325 324 323 323 323 323 323 323 323 323 323 323 323 323 322 322 322 322 322 322 322 322 322 321 322 322 322 322 323 324 324 325 325 326 326 327 327 328 328 328 327 327 326 326 325 324 324 323
312 310 312 316 316 321 318 311 313 314 313 313 313 316 320 319 315 314 315 314 315 317 316 316 317 318 318 319 318 319 319 319 319 317 317 317 317 317 317 318 320 321 323 324 324 324 324 323 324 324 324 323 323 323 323 323 323 323 323 323 323 323 323 322 322 321 321 321 320 320 320 320 320 320 321 321 321 321 321 322 323 324 325 326 326 327 327 327 326 325 326 326 326 324 322 321 321
313 312 317 317 315 323 322 310 311 315 313 312 313 316 319 318 314 313 314 314 315 316 316 316 316 317 317 318 318 318 318 318 317 317 317 317 317 316 316 317 318 319 321 322 322 323 323 323 323 323 323 323 323 323 323 322 323 323 323 323 323 323 323 322 321 321 320 320 320 319 319 319 319 319 320 320 320 320 320 321 321 322 323 324 325 325 325 325 324 324 324 324 323 322 321 321 320
316 314 320 321 315 319 319 312 311 312 313 312 313 316 319 317 312 312 314 313 315 317 316 316 316 316 317 317 318 317 317 318 318 316 316 316 315 316 316 316 317 318 319 320 322 322 322 322 322 321 321 321 322 322 323 323 323 323 323 323 323 323 323 322 321 321 320 320 319 319 320 320 320 319 320 321 321 321 320 321 321 322 323 324 324 324 323 323 323 323 322 321 322 323 324 324 321
316 313 316 321 317 315 317 316 312 310 313 314 313 314 318 317 311 311 313 312 315 317 317 317 316 316 316 317 317 317 317 317 317 315 315 315 314 314 315 315 316 317 318 319 321 321 321 321 321 320 319 320 321 322 322 323 323 323 323 323 323 322 321 321 321 321 320 319 319 320 321 321 320 320 319 320 321 320 321 322 323 323 324 324 324 324 324 324 324 322 322 322 323 326 325 323 320
318 316 315 317 315 314 316 317 313 311 313 314 314 314 315 316 312 310 311 311 314 316 316 316 316 317 317 317 316 316 316 316 315 314 314 314 314 313 314 314 315 316 317 318 320 321 322 321 320 319 319 318 320 322 322 323 323 324 324 323 323 322 321 321 321 320 320 320 320 321 322 321 321 321 321 320 319 319 321 322 322 322 322 322 322 323 323 323 323 322 322 322 323 324 322 320 320
318 318 317 319 317 314 316 318 314 311 314 315 314 314 314 315 314 311 311 311 311 313 313 313 315 316 317 317 316 316 315 315 314 314 314 314 313 313 313 313 314 314 316 317 319 320 321 321 321 320 319 319 322 323 323 324 324 325 324 324 322 320 320 320 320 320 320 320 320 321 322 321 322 322 322 321 320 320 321 323 323 322 323 322 321 321 321 320 320 320 321 321 321 322 320 319 322
312 312 314 317 318 316 316 318 312 309 313 315 314 314 314 315 315 311 309 311 310 310 311 311 312 314 316 317 316 315 315 314 314 314 314 314 314 314 313 313 313 314 314 316 318 318 319 320 320 320 320 322 324 324 323 323 322 322 322 321 319 318 318 318 318 318 319 319 319 320 320 321 323 325 324 323 324 324 324 324 324 324 324 323 322 322 321 320 319 320 321 321 323 323 321 320 323
309 311 312 313 316 317 315 315 313 309 312 316 314 314 313 313 313 310 308 309 310 311 310 310 311 312 314 315 315 315 314 314 314 314 314 314 314 314 314 314 314 313 314 315 316 317 318 319 320 319 321 323 323 322 322 321 319 319 318 317 317 317 317 316 316 316 317 318 318 320 319 320 323 324 325 325 325 325 325 325 325 325 324 324 325 326 324 322 321 321 322 324 326 323 321 321 322
310 310 310 312 314 314 314 314 314 311 312 317 316 314 314 314 313 310 308 309 311 312 312 312 312 312 313 314 314 314 314 314 314 314 314 314 314 315 315 315 314 314 314 314 315 316 317 319 319 320 322 322 321 320 320 319 318 318 318 318 317 318 318 317 317 317 318 318 318 319 320 320 322 322 323 323 323 324 325 324 324 324 324 323 327 328 324 322 324 324 322 323 324 322 322 323 322
311 311 310 312 313 314 315 314 313 312 312 315 315 315 315 313 313 312 309 310 312 312 312 312 313 313 314 314 315 314 314 314 315 314 314 314 314 315 315 315 315 314 314 314 314 315 316 317 317 319 321 321 320 319 319 318 320 321 321 320 320 320 320 319 319 318 318 317 318 318 319 320 321 321 322 323 323 324 324 323 323 323 323 322 324 325 323 322 324 325 323 321 322 323 325 325 325
312 312 311 312 313 315 315 314 313 312 312 313 314 315 317 316 316 315 312 310 311 311 311 312 313 313 314 314 314 314 314 314 315 314 314 314 314 314 314 314 314 315 314 314 314 315 315 315 315 317 319 320 320 319 319 320 322 323 324 323 322 321 320 319 318 317 316 316 316 316 317 318 320 320 321 323 324 323 323 323 323 324 325 325 324 322 325 325 322 324 326 323 323 325 326 326 325
313 313 312 312 313 314 315 315 313 313 315 315 312 315 326 327 320 316 314 311 310 309 309 310 313 314 314 314 314 314 314 314 314 314 314 314 314 314 314 314 314 314 314 313 314 314 314 314 314 316 317 318 319 319 320 322 323 323 323 322 320 319 318 317 316 316 316 316 316 316 317 318 320 321 321 323 324 323 324 324 324 324 325 327 325 325 328 326 321 323 326 325 325 326 326 325 323
312 314 314 312 312 314 317 316 315 317 318 314 312 316 326 326 320 316 316 315 314 310 307 308 311 314 314 314 315 314 315 314 314 315 314 314 314 314 314 314 314 313 313 313 314 314 314 314 314 315 315 316 317 318 320 321 322 323 322 320 318 317 316 315 315 316 317 317 317 318 319 320 322 322 323 324 324 324 325 325 324 326 328 328 328 329 328 321 320 323 325 326 327 327 325 321 320
313 317 317 314 313 315 319 316 317 320 316 313 315 316 318 318 317 317 314 316 318 315 312 309 308 312 314 314 315 315 315 315 315 315 315 314 314 314 314 314 314 313 313 313 313 314 314 314 314 314 315 315 316 317 318 320 321 321 321 320 319 318 317 317 318 318 318 318 319 319 320 321 322 322 322 323 325 324 325 326 325 326 328 327 327 326 322 319 322 324 326 327 325 323 321 320 320
316 319 318 317 315 316 318 315 316 317 314 318 319 314 314 318 321 319 314 313 316 317 318 313 309 311 314 314 315 315 315 315 315 315 315 315 315 315 315 314 314 314 313 313 313 313 314 314 315 315 316 316 316 317 318 319 320 321 322 322 321 320 320 320 321 320 320 320 321 321 321 321 322 321 321 322 323 323 324 325 324 323 321 322 322 320 319 322 325 325 325 324 321 320 319 319 318
314 316 317 318 319 318 316 316 317 313 312 319 321 313 313 320 326 322 315 313 315 317 317 313 309 311 313 313 314 314 314 315 315 315 315 315 315 315 315 314 314 314 313 314 313 313 314 314 315 316 316 317 317 318 318 319 321 323 323 322 321 321 321 322 322 322 321 321 322 322 322 322 321 320 320 321 320 320 321 322 321 320 318 318 319 318 318 321 322 322 321 318 317 318 317 315 314
311 314 318 318 320 320 320 323 320 312 315 321 321 316 312 316 324 321 315 316 318 317 316 313 309 310 313 313 314 314 314 314 314 315 315 315 315 314 315 315 314 314 314 314 314 314 314 315 315 316 316 317 317 318 319 319 321 322 322 321 321 322 323 323 323 323 322 322 322 323 323 323 322 322 322 322 322 320 319 319 319 318 316 316 317 316 316 317 316 316 315 313 314 314 312 312 312
312 319 320 316 321 321 321 326 319 313 320 321 317 314 311 314 320 319 316 317 316 315 316 317 312 311 313 313 313 314 314 314 313 314 314 315 315 315 315 315 314 314 314 314 314 314 315 314 315 316 316 317 318 319 319 320 321 321 321 321 321 322 323 324 324 324 323 323 323 323 323 323 323 323 323 322 321 319 318 318 317 315 314 314 314 313 313 313 313 313 312 312 312 311 311 311 311
314 319 317 315 320 319 317 321 317 315 318 314 311 313 312 313 316 315 314 314 314 310 310 313 311 310 313 313 313 314 314 314 313 313 313 314 314 314 314 315 314 314 314 314 314 314 315 315 315 316 316 316 317 318 319 320 321 321 322 323 323 323 324 325 325 325 325 324 324 324 324 324 324 324 323 320 318 317 316 316 314 313 313 312 312 312 312 312 312 312 312 312 311 311 311 310 309
313 315 315 316 319 316 315 317 315 316 316 311 309 312 314 315 315 316 316 313 312 308 306 309 310 310 313 312 312 313 313 314 313 314 314 313 314 314 314 315 314 315 314 314 314 315 315 315 316 316 316 316 317 318 318 319 320 321 323 324 324 325 325 326 326 326 325 325 325 325 325 325 325 323 320 318 316 315 314 314 313 312 312 312 312 312 312 312 312 311 311 311 310 309 308 306 304
314 316 317 320 322 320 318 319 319 318 317 312 309 312 319 320 317 316 312 308 310 309 309 311 310 311 313 312 313 312 313 314 313 313 314 314 315 315 315 316 315 316 315 315 315 315 316 316 316 316 316 316 316 316 317 317 319 321 323 325 325 326 327 327 327 325 325 325 325 326 325 324 324 321 318 316 315 314 313 313 312 312 312 312 312 312 312 311 311 310 310 308 307 305 303 301 300
316 317 317 318 321 322 318 318 320 320 318 314 311 314 321 319 314 312 308 307 308 307 308 309 309 311 311 312 313 312 313 314 313 314 314 314 315 315 315 315 315 316 316 316 316 316 316 316 316 316 315 315 315 315 315 316 318 320 323 324 325 326 327 326 326 325 324 325 325 326 324 323 321 318 317 316 314 313 312 312 312 312 312 312 312 311 311 310 309 308 306 304 302 301 300 298 298
315 314 316 316 316 321 319 312 313 315 315 315 312 314 319 317 313 315 315 313 311 308 308 307 309 311 311 312 313 312 313 313 313 314 313 314 314 314 314 314 313 314 314 314 315 315 316 315 315 315 314 314 314 314 314 314 316 319 321 323 324 325 325 325 325 324 324 325 325 325 323 321 319 317 316 314 312 312 312 312 312 312 312 311 311 310 309 307 306 304 302 301 299 298 298 297 297
315 314 316 314 312 318 321 316 315 314 313 317 315 313 317 316 315 321 321 316 314 313 309 306 308 311 311 312 312 312 313 313 314 314 313 314 314 313 313 312 312 312 312 312 313 312 313 313 313 314 313 313 313 313 313 312 313 315 318 320 321 323 323 323 324 324 324 325 324 322 320 318 317 316 314 312 312 312 312 312 312 311 311 310 309 308 306 304 302 300 299 298 298 297 297 297 297
313 314 313 314 315 316 317 315 316 313 311 319 319 313 314 315 317 321 319 316 317 314 312 311 310 310 311 312 313 312 313 313 314 314 313 313 313 312 312 312 312 312 312 312 312 312 312 312 312 312 312 312 312 312 312 311 311 313 316 319 320 321 323 323 323 323 324 324 322 319 317 316 315 314 312 312 312 312 311 311 311 310 309 308 306 304 302 301 300 299 298 297 297 297 297 297 297
310 311 310 313 317 317 317 316 316 314 313 318 318 314 316 317 318 320 315 315 318 316 318 318 309 308 311 312 313 313 313 313 313 313 313 312 312 312 312 312 313 312 312 312 312 312 312 311 311 311 311 311 311 311 311 311 311 313 316 319 321 322 322 323 323 323 323 321 319 317 316 315 313 312 312 312 312 311 311 310 310 308 306 304 303 301 300 299 298 298 297 297 297 297 297 297 297
312 313 311 312 313 314 316 315 316 319 318 318 316 315 323 323 317 316 314 313 315 314 319 317 308 309 312 312 312 313 312 313 313 313 312 312 312 312 312 313 313 313 313 313 312 312 311 311 310 310 310 310 310 311 311 311 312 314 318 320 321 322 322 322 323 322 320 318 316 316 315 313 312 312 312 311 311 310 310 309 307 305 303 302 301 300 299 298 298 297 297 297 297 297 297 297 297
314 314 314 313 313 315 316 313 314 316 316 318 316 314 325 327 316 313 314 314 312 309 310 310 309 311 312 312 312 312 312 313 312 312 312 311 311 312 312 313 313 313 313 313 313 312 312 312 311 311 310 309 310 310 310 311 312 315 318 319 320 321 321 321 320 318 316 315 315 314 313 312 312 311 311 310 310 309 308 306 304 303 302 301 300 299 298 298 297 297 297 297 297 297 297 297 297
Wind_Speed
1 0 2 3 5 4 4 4 2 2 3 2 2 0 2 2 2 1 2 1 1 3 6 8 10 11 8 6 8 8 5 4 5 4 3 5 15 20 17 16 15 13 10 8 6 5 6 9 11 14 19 18 17 16 15 14 13 12 11 11 9 9 8 6 6 8 9 10 11 11 12 13 14 13 12 12 12 12 11 10 10 10 10 9 8 7 7 6 6 6 7 8 9 9 9 10 11
1 1 2 4 5 4 3 4 2 3 5 1 2 2 2 3 1 4 5 2 5 9 16 18 16 13 11 12 10 8 5 2 2 5 9 16 23 20 16 16 15 12 10 8 6 5 7 10 12 17 20 18 16 15 15 14 13 12 11 10 9 8 7 4 5 8 8 10 11 12 13 13 13 12 12 12 12 11 11 11 10 10 10 9 9 9 9 9 8 8 8 9 9 9 10 11 12
2 1 3 5 5 3 1 3 1 1 3 1 4 3 1 1 4 6 6 8 15 17 16 14 12 10 8 9 6 4 3 2 4 12 18 22 23 20 18 16 15 12 10 7 6 5 7 10 13 17 19 17 16 15 14 14 13 12 11 10 9 7 5 3 4 6 8 9 11 13 13 13 12 11 12 11 11 10 10 10 10 10 10 10 10 10 11 9 9 9 9 10 10 10 11 11 11
2 2 2 3 3 3 3 3 1 3 0 3 3 4 2 4 6 5 7 15 18 12 7 6 8 8 7 7 6 5 4 4 11 19 22 22 20 20 19 16 15 12 9 7 6 6 7 10 13 16 18 17 17 16 15 13 13 12 11 9 7 6 5 3 4 5 7 9 11 12 12 12 12 11 11 10 10 10 10 10 10 10 10 10 11 11 11 10 9 9 9 11 10 10 11 10 10
2 2 1 2 1 1 3 2 2 3 3 4 2 5 4 6 6 6 9 13 10 4 3 6 5 6 10 8 4 4 5 9 15 20 23 21 18 19 18 16 14 12 9 7 7 7 8 11 13 16 17 16 17 16 15 13 12 11 10 9 7 6 5 4 5 6 8 9 11 10 11 12 12 11 10 10 10 10 10 9 10 10 10 11 11 11 10 9 9 9 9 10 11 10 10 9 9
2 2 2 2 2 1 2 0 1 1 5 5 3 5 5 7 8 9 10 8 6 6 6 8 9 9 10 8 7 9 8 9 14 18 21 20 19 19 18 16 14 11 9 8 8 8 9 11 14 16 16 16 17 16 15 13 11 11 10 8 7 7 6 5 6 7 9 9 9 9 11 12 12 11 10 10 10 10 9 9 10 10 11 11 11 11 10 9 9 9 9 10 10 9 8 8 8
2 2 2 3 3 3 2 2 3 3 4 5 4 5 7 9 11 12 9 7 5 6 8 13 16 13 7 6 9 9 6 8 13 17 19 19 20 19 17 16 14 12 9 9 9 8 9 11 14 15 15 15 16 16 15 12 10 10 10 9 8 7 6 6 7 7 8 9 9 9 10 11 11 11 10 10 10 10 10 10 10 10 11 11 11 11 10 9 9 9 10 10 9 7 7 7 8
3 2 3 4 1 3 3 1 3 3 2 4 4 6 12 13 14 11 7 5 3 5 12 16 14 9 3 2 5 5 6 9 12 15 18 19 20 18 17 15 14 12 10 9 10 9 9 10 12 14 14 14 15 15 14 12 10 9 10 9 8 7 6 6 7 7 8 9 9 9 9 10 10 11 10 9 9 10 10 10 10 10 11 11 10 10 10 10 9 9 9 9 8 6 6 6 7
3 2 3 3 1 2 2 2 4 3 3 4 3 7 12 15 14 9 5 4 6 10 14 13 8 6 4 4 6 7 8 9 12 15 17 18 20 18 16 15 13 12 11 10 10 9 9 9 10 12 14 14 14 14 14 13 9 8 9 9 8 7 7 7 7 7 8 8 8 8 8 8 9 10 9 8 8 9 10 10 10 11 11 10 10 10 10 10 9 9 9 8 7 6 6 6 6
4 3 3 3 2 1 3 3 3 2 4 4 3 9 12 14 11 6 6 6 10 13 11 9 6 8 9 7 7 9 10 10 12 15 16 18 18 17 16 15 13 12 12 11 10 9 8 8 9 10 11 13 14 13 14 13 10 8 9 9 7 7 7 6 6 6 7 7 8 8 7 8 8 9 9 8 8 10 10 10 10 10 10 10 10 10 10 9 9 9 8 7 6 5 6 6 6
3 4 4 4 3 1 2 3 4 3 4 3 2 8 13 14 9 5 6 8 10 11 11 8 7 14 12 5 6 10 12 10 11 15 17 17 17 16 16 15 14 11 11 11 10 9 8 8 8 7 8 10 13 14 15 15 11 9 8 7 6 6 6 6 6 6 7 7 8 8 8 8 8 10 9 8 9 10 10 10 10 10 11 11 11 10 10 9 8 8 8 7 5 5 6 6 7
1 2 4 3 2 2 4 2 4 5 4 1 2 8 13 11 7 6 9 9 10 10 11 8 10 17 8 2 7 11 14 12 11 16 18 17 17 16 16 15 14 13 11 11 10 9 8 7 7 7 6 7 11 15 17 16 13 10 7 6 6 6 6 6 6 6 7 7 7 8 9 9 9 10 10 9 9 10 10 10 11 11 11 11 10 10 10 9 9 8 8 7 6 6 6 7 8
2 1 5 2 3 2 3 2 3 3 4 3 4 8 13 10 8 12 13 10 10 9 7 9 16 17 5 2 9 13 16 15 14 16 18 18 17 16 15 15 15 14 12 11 10 9 8 8 8 7 7 7 9 12 15 16 13 9 6 5 6 6 6 6 6 7 7 7 8 9 9 9 10 11 10 9 9 9 10 10 10 11 10 10 10 10 10 9 9 9 8 7 7 7 7 8 9
3 2 5 2 1 2 4 1 2 2 3 5 5 10 13 9 9 17 16 9 6 7 7 12 19 14 5 5 9 17 19 17 19 18 19 18 17 16 15 15 14 15 14 12 11 9 9 8 8 8 8 9 9 11 12 13 11 8 6 6 6 7 7 6 6 7 7 8 8 9 9 10 11 11 11 10 9 10 10 10 10 10 10 10 10 10 10 10 10 10 9 8 8 8 8 9 10
3 2 4 3 1 1 3 1 2 5 4 4 6 11 13 9 9 17 17 10 5 7 12 14 18 9 5 11 11 22 24 20 22 20 20 19 18 17 15 15 14 15 15 14 12 10 10 9 9 9 9 10 10 11 11 12 10 9 8 7 8 7 7 7 7 7 7 8 8 9 9 10 11 11 10 10 10 9 9 9 9 9 10 10 10 10 10 10 10 10 9 9 8 9 9 9 10
3 2 4 2 0 1 3 2 3 3 5 5 8 12 10 7 11 15 12 11 9 13 15 13 17 6 7 15 10 20 27 22 23 22 23 21 19 19 16 16 15 16 16 15 14 12 11 10 9 9 10 10 10 11 10 11 10 9 9 8 8 8 8 7 7 7 8 8 9 9 9 9 10 10 9 9 9 9 9 9 8 8 8 9 9 9 9 9 9 9 9 9 9 9 9 9 9
3 1 4 1 2 2 3 4 4 3 5 6 10 15 9 4 12 11 7 12 15 19 16 11 18 10 8 11 6 19 28 24 25 24 25 24 22 21 19 19 18 18 18 17 17 15 14 12 11 10 11 11 10 11 10 10 10 10 9 9 9 8 8 8 7 7 7 8 9 9 9 9 9 9 9 8 8 8 8 8 8 7 7 8 8 8 8 8 8 8 8 9 8 9 9 9 10
2 2 3 2 3 3 5 7 7 4 4 9 14 17 12 8 12 11 7 12 15 17 14 13 18 13 11 10 8 24 30 26 28 26 28 28 26 24 23 22 21 21 20 20 19 18 16 14 13 12 11 11 11 11 11 10 9 9 9 8 9 8 8 7 7 7 7 7 8 9 9 9 9 8 8 8 8 7 7 6 6 6 6 6 6 7 7 7 7 7 7 8 8 8 8 9 10
1 3 2 3 5 5 5 7 9 5 5 13 16 16 16 15 17 15 8 8 12 11 9 12 16 14 12 11 14 28 31 29 30 29 31 30 29 29 26 26 24 23 22 22 21 20 18 17 15 13 12 12 11 11 11 10 9 9 8 8 8 7 7 7 6 6 6 7 7 7 8 8 7 8 8 8 7 6 6 5 5 5 5 5 5 5 5 5 6 6 6 7 7 7 8 9 9
2 2 1 5 6 6 6 7 11 10 8 15 17 14 15 18 20 16 10 8 8 8 11 12 14 15 15 15 20 31 32 32 31 30 31 31 30 29 28 27 25 24 23 22 21 20 19 18 17 15 14 13 12 12 11 11 10 9 8 8 7 6 6 6 6 6 6 6 6 6 6 6 6 6 6 6 6 6 5 4 4 4 3 3 3 3 3 4 4 5 5 6 7 7 8 9 9
3 3 4 5 2 3 8 8 10 11 11 16 17 12 11 18 20 16 14 8 5 12 18 18 17 19 18 19 25 32 34 34 33 31 31 31 31 29 27 25 23 23 22 22 22 21 20 19 18 17 16 15 14 13 12 11 11 10 9 8 8 7 6 5 5 5 5 5 5 5 5 5 5 5 5 5 5 4 4 3 3 2 2 1 2 2 3 3 3 4 5 6 6 7 8 9 10
4 5 7 8 3 3 9 7 6 9 12 14 15 12 14 18 16 18 19 11 9 18 23 20 18 18 18 21 27 33 35 36 35 33 32 32 32 30 28 26 24 24 23 23 22 21 20 19 18 18 17 16 15 14 13 12 11 11 10 9 9 8 7 6 6 5 4 4 4 4 4 4 4 4 4 4 4 3 3 2 2 1 0 0 1 2 3 4 4 5 5 6 7 7 8 9 9
3 6 8 10 7 6 9 8 5 9 14 18 17 14 18 17 10 17 23 18 15 18 21 19 16 16 17 21 27 33 36 37 36 34 33 33 32 31 29 28 26 24 23 23 23 22 21 20 19 18 18 17 16 16 15 14 13 12 11 11 10 9 9 8 7 6 6 5 5 5 4 4 4 4 4 4 4 3 2 2 2 2 2 2 3 3 4 5 5 6 6 7 8 8 8 9 9
0 5 9 11 11 10 12 10 6 10 17 21 18 14 19 17 9 13 23 24 15 10 16 19 16 16 19 23 27 31 33 34 34 32 31 31 31 29 27 26 25 24 23 23 23 23 22 20 20 19 19 18 17 17 17 16 15 14 14 13 12 11 10 9 9 8 8 7 7 7 7 6 6 6 6 5 5 4 4 4 3 4 4 4 4 4 5 6 6 7 7 8 9 9 10 10 10
1 4 10 13 13 12 13 11 6 9 13 15 13 11 17 17 9 11 21 24 15 10 13 18 18 18 22 24 26 29 31 33 32 32 32 31 31 29 28 27 26 26 25 23 24 24 23 21 20 20 19 19 18 18 17 17 16 16 16 14 13 13 12 11 11 10 9 9 8 8 8 8 8 7 7 7 6 6 6 6 5 5 6 7 6 6 6 7 8 8 8 9 10 11 11 11 12
2 7 14 16 16 14 10 8 5 9 9 10 11 7 9 11 5 8 19 22 17 14 14 18 21 21 23 25 26 28 31 32 32 32 32 32 32 32 32 30 29 29 26 24 24 25 24 22 21 20 19 19 19 19 18 17 17 17 16 14 14 13 12 12 13 12 11 10 10 9 10 10 9 9 9 9 8 7 8 8 7 8 8 9 8 8 8 9 9 10 10 11 11 12 12 12 13
9 16 19 17 16 14 9 5 3 8 7 9 11 4 4 7 3 5 14 19 18 16 15 20 23 22 23 25 26 28 29 30 29 30 32 33 34 34 33 32 32 30 27 26 26 25 26 26 23 21 20 19 20 20 18 18 18 17 16 15 14 13 12 14 14 13 13 12 11 11 11 11 11 11 11 11 9 9 10 10 10 10 10 11 10 10 11 11 12 12 12 12 13 13 13 13 14
17 18 16 13 10 9 8 3 3 6 5 10 9 2 1 2 2 7 12 19 19 18 17 21 25 24 23 25 26 28 28 28 29 31 32 32 33 33 33 33 33 31 29 28 26 25 28 29 26 23 22 21 21 21 19 19 19 18 17 16 15 13 13 13 13 13 13 12 12 13 12 13 13 13 13 13 11 11 11 12 12 12 12 13 13 13 13 13 14 13 13 13 14 14 14 14 16
18 11 7 8 5 5 8 4 5 5 3 9 8 2 3 2 8 11 11 20 20 17 19 21 26 27 25 26 27 29 28 28 32 32 30 29 29 30 31 31 31 30 30 28 26 25 27 29 28 25 24 23 22 21 20 20 20 19 18 17 16 15 15 14 13 13 12 13 14 14 14 14 14 14 14 14 14 14 14 14 14 14 14 14 15 15 15 15 15 15 14 15 15 16 16 15 17
12 5 2 3 5 5 7 4 5 4 2 9 10 2 6 7 17 15 9 20 22 18 20 22 25 28 28 28 28 29 29 30 32 30 28 28 28 29 29 29 29 29 28 28 27 27 26 27 28 27 26 25 23 22 22 21 21 20 19 18 17 17 16 15 14 13 13 14 15 15 15 15 15 15 15 15 16 15 16 16 16 16 16 16 17 17 17 17 17 15 15 16 17 18 18 17 18
5 3 1 0 1 4 6 2 6 5 3 9 9 4 6 8 18 17 11 20 24 22 22 23 25 29 30 30 30 30 30 31 30 27 27 27 28 29 29 29 29 29 29 29 28 27 26 26 27 27 27 25 23 22 22 21 20 20 19 19 18 18 18 17 15 14 14 15 15 15 15 15 15 16 16 17 17 17 17 18 18 18 17 18 19 19 20 19 19 17 15 16 17 19 21 20 20
3 2 3 2 3 4 7 2 8 7 3 7 7 3 6 8 12 14 14 19 24 25 24 25 26 28 30 31 31 31 30 31 30 29 28 28 28 28 29 29 30 30 29 29 28 28 27 26 26 26 26 25 24 23 21 20 20 19 19 19 19 19 19 18 17 16 15 15 16 15 15 15 15 16 17 19 19 19 19 19 19 19 19 20 20 20 20 19 19 18 17 17 19 19 20 22 22
3 1 3 2 3 2 5 3 6 5 2 3 5 2 4 6 6 7 15 21 23 24 25 26 28 28 30 30 31 31 31 31 31 30 29 28 29 28 28 29 30 30 29 29 29 29 29 28 27 27 26 25 24 23 22 21 20 20 19 19 19 19 20 19 18 17 17 17 16 16 15 16 16 17 18 20 21 21 21 20 19 19 19 19 20 20 20 19 19 20 18 16 18 19 19 22 22
2 0 2 3 3 3 2 4 5 3 3 3 5 3 6 7 4 1 12 21 23 24 25 27 29 29 30 30 30 31 31 32 31 30 28 27 27 27 28 27 28 29 30 30 30 30 29 28 28 27 26 24 23 22 22 22 21 20 20 19 20 20 20 19 18 19 18 18 18 17 17 17 18 18 18 19 20 20 20 19 18 18 18 19 20 20 20 21 20 20 19 16 17 20 21 22 19
3 2 2 2 2 3 3 3 3 4 3 3 5 5 10 11 9 5 6 15 22 24 25 25 28 30 30 30 31 31 31 32 30 27 25 26 26 26 27 27 27 29 30 31 30 30 30 29 29 28 26 24 23 22 22 22 22 22 22 21 22 22 22 21 20 21 20 20 19 19 19 19 19 18 18 18 17 16 16 16 16 16 16 17 19 20 20 20 19 20 20 17 17 20 20 17 15
4 4 2 3 3 3 4 4 4 4 4 5 6 7 10 12 13 7 3 10 18 22 22 22 25 27 29 31 31 31 32 31 27 25 25 26 27 26 27 27 27 28 29 30 31 31 31 31 30 29 27 25 23 23 23 23 23 24 24 24 25 24 24 23 22 22 22 21 21 20 20 20 19 19 19 18 16 15 14 15 15 14 17 18 17 16 15 15 15 15 15 15 14 16 16 14 16
3 2 1 2 3 3 4 3 5 1 4 6 7 8 10 11 12 8 4 7 13 19 21 23 24 26 29 31 32 32 32 30 27 27 27 27 27 27 27 28 28 29 30 31 31 32 32 31 31 30 28 26 26 26 25 25 25 25 26 26 26 25 24 23 22 23 23 22 22 21 21 20 20 19 19 18 17 16 16 16 16 15 17 18 15 13 14 15 13 11 12 13 13 16 15 13 15
5 4 3 3 3 4 5 3 4 1 4 4 3 5 10 11 11 9 5 6 12 20 23 24 27 27 29 32 33 33 31 30 29 28 27 27 27 27 28 29 30 31 31 32 32 32 31 32 32 30 29 28 28 27 27 27 26 26 26 26 25 23 22 21 21 20 21 21 21 21 20 19 19 19 18 17 17 17 17 17 17 16 16 14 13 14 16 15 11 10 13 16 17 17 15 11 13
5 5 4 4 3 3 5 3 3 2 3 3 1 4 9 11 10 8 8 10 16 23 24 27 29 28 30 33 34 34 33 31 30 28 27 26 25 25 27 29 30 32 32 32 32 32 32 33 33 32 31 30 29 28 28 27 26 25 25 24 23 22 21 19 19 19 19 20 20 19 18 18 18 18 17 17 16 16 16 17 17 16 15 13 13 16 16 14 12 11 12 14 15 14 13 12 13
5 3 4 5 2 1 3 3 2 2 1 1 1 3 7 8 7 7 13 19 21 24 23 25 28 29 33 34 33 33 33 33 30 28 27 26 25 26 27 29 30 31 32 33 33 33 34 34 33 33 32 31 30 29 28 27 26 25 24 24 23 23 21 20 20 19 20 20 20 19 18 17 17 17 17 16 15 15 16 16 13 12 10 9 11 15 15 13 12 12 10 9 11 13 16 18 17
5 5 6 5 4 5 4 2 0 1 2 2 3 3 5 6 6 7 11 14 19 22 20 22 27 30 33 33 32 34 34 33 30 28 28 27 27 26 26 28 29 31 33 34 34 33 33 33 32 32 32 32 31 30 29 28 28 27 26 26 25 25 24 23 23 22 21 21 21 19 17 16 16 16 16 15 15 16 15 13 11 11 10 10 12 13 13 13 12 13 14 12 13 17 19 20 18
5 6 8 9 7 6 4 1 2 2 3 2 1 2 5 4 5 9 7 4 9 15 14 21 28 30 32 33 34 35 34 33 32 31 30 29 29 28 27 27 28 32 34 34 33 33 32 32 32 32 32 32 32 31 30 30 30 29 29 29 28 27 26 25 24 23 22 20 18 16 15 15 16 16 16 14 14 14 12 13 13 12 11 12 14 13 13 15 12 10 13 15 17 18 18 18 15
4 5 8 10 7 3 3 3 3 3 4 3 2 4 6 6 4 8 5 4 8 9 9 18 28 31 33 36 38 38 36 35 34 33 31 30 29 29 29 29 28 30 32 33 33 33 33 32 32 33 33 33 32 32 32 32 32 31 31 30 29 28 27 25 24 23 21 18 16 15 14 15 16 17 16 14 14 13 13 14 13 11 13 14 15 16 16 15 11 10 14 16 17 18 19 19 16
4 4 7 8 7 6 6 6 5 3 3 2 3 3 4 5 5 6 2 4 9 8 8 14 24 32 36 39 42 42 40 38 36 34 32 31 30 29 29 29 28 27 27 30 33 33 33 33 32 32 33 33 33 33 34 34 33 33 32 31 30 29 28 26 25 23 21 18 16 16 16 17 17 18 16 15 15 14 14 14 13 14 17 18 18 18 17 14 12 15 17 17 18 18 18 17 15
6 3 5 6 5 5 5 7 4 1 1 3 3 2 3 5 6 5 3 3 8 9 9 12 21 32 36 39 42 43 43 40 37 35 33 31 30 29 28 27 27 27 25 27 30 31 32 32 32 33 33 34 33 34 34 34 34 34 34 33 32 31 29 28 26 24 22 20 18 18 18 19 19 18 17 16 16 16 15 15 17 18 18 18 19 18 14 13 13 16 18 18 18 17 16 16 17
4 5 6 5 4 4 3 4 3 2 1 6 5 3 3 5 5 3 1 3 7 9 9 10 19 27 30 33 37 39 41 41 39 37 34 32 30 29 29 28 28 28 27 26 27 28 30 31 32 33 33 33 33 34 34 34 34 35 35 35 33 32 30 29 27 25 24 23 21 20 20 21 20 18 17 17 17 17 17 17 18 19 17 16 17 16 14 15 16 18 19 18 16 16 17 17 16
7 6 5 6 5 4 3 2 3 2 3 6 6 3 2 4 5 4 4 5 7 8 7 9 14 17 18 20 23 26 30 34 38 38 35 33 32 32 32 30 29 28 27 27 27 28 28 29 30 31 32 32 32 33 33 34 35 35 36 35 34 32 30 29 27 26 25 24 23 22 22 21 20 18 17 18 19 20 19 19 18 17 15 14 14 15 14 15 17 17 15 14 13 14 14 12 11
8 4 4 4 2 2 3 3 2 2 5 6 4 1 3 5 5 4 6 6 6 8 7 8 10 12 11 9 11 15 18 22 28 33 35 34 34 34 33 32 30 29 29 28 28 28 28 28 29 30 30 31 31 32 33 34 34 35 35 34 33 31 30 28 27 26 25 23 23 23 23 21 19 19 19 20 20 20 18 17 15 14 13 11 11 11 11 11 11 10 9 8 7 6 6 6 7
5 4 6 5 1 1 2 2 1 4 5 3 2 1 2 5 7 8 9 11 10 11 13 13 13 16 14 8 9 10 12 16 19 24 29 31 32 33 33 32 31 30 30 29 29 29 29 29 30 31 31 31 31 32 33 34 34 34 34 33 32 31 29 29 27 26 24 23 23 23 23 21 20 20 20 19 18 17 15 14 13 12 10 8 7 7 7 6 5 4 4 3 3 3 3 4 4
5 5 6 6 3 4 6 3 1 4 4 3 2 1 3 4 6 10 13 16 16 13 16 20 19 20 19 15 13 11 10 13 16 19 21 24 26 27 27 28 29 29 30 31 31 31 32 32 32 32 32 32 32 33 33 34 34 34 34 33 32 31 30 28 27 26 24 23 23 23 22 21 21 21 19 17 15 14 13 13 11 9 7 6 6 5 5 4 3 2 1 1 1 1 2 3 3
5 3 5 5 5 5 5 3 3 4 3 3 2 1 3 3 4 8 12 17 19 16 18 21 22 23 23 22 21 16 11 10 13 17 18 19 20 22 23 24 25 26 28 30 32 33 34 34 34 34 33 33 34 34 34 35 35 35 34 33 32 31 30 28 27 25 24 23 23 23 23 22 21 20 18 16 14 13 13 12 10 8 7 6 6 5 4 3 2 2 1 1 0 0 1 3 4
4 1 3 4 5 5 3 3 5 3 1 2 2 3 4 4 6 10 9 12 17 19 19 19 19 20 20 24 25 20 15 11 11 14 16 18 20 21 23 24 24 25 26 28 30 32 34 35 35 36 35 35 35 35 35 35 35 35 34 34 33 31 30 29 27 26 25 25 24 24 24 23 21 19 17 16 15 14 13 12 10 9 8 7 6 6 5 4 3 3 2 2 1 1 2 3 4
2 2 4 5 3 6 4 1 1 3 2 3 1 3 5 3 7 10 7 7 11 13 13 15 17 15 15 21 24 22 18 14 12 13 15 18 20 21 23 23 24 25 27 28 30 32 34 35 36 37 37 36 36 36 35 35 35 35 35 34 33 32 31 29 28 27 27 26 26 26 25 23 20 18 18 17 16 14 13 12 11 11 10 8 7 7 6 5 5 4 3 2 1 1 2 2 3
4 4 6 3 2 4 3 2 1 3 4 4 0 4 4 2 4 7 7 7 11 10 8 10 14 14 15 18 19 20 19 16 16 16 17 18 19 20 21 22 23 23 24 26 28 30 32 34 36 37 37 37 36 35 34 34 34 34 34 34 33 32 30 29 29 28 28 28 28 27 24 21 20 19 19 17 16 15 14 13 13 11 10 9 8 8 7 6 5 4 3 2 1 1 2 3 4
3 4 6 4 2 2 1 3 3 2 4 4 3 3 4 3 5 5 7 8 11 10 6 6 10 15 19 20 17 17 17 18 18 18 18 19 18 18 18 18 19 19 21 22 24 27 29 31 34 35 36 35 34 34 33 32 32 31 32 32 31 30 30 29 29 29 29 29 28 25 21 21 21 20 19 18 17 16 15 14 12 11 10 10 9 9 7 6 5 4 2 1 0 2 3 4 6
3 1 3 2 2 4 3 3 4 3 3 4 4 3 3 6 6 6 9 11 9 8 6 5 10 16 21 21 18 16 16 18 18 17 17 17 16 16 15 15 14 14 16 19 21 24 25 27 29 31 33 33 32 32 31 30 30 29 29 29 29 29 29 29 29 29 29 27 25 23 21 22 21 21 20 19 18 16 15 13 12 12 11 10 9 8 7 6 4 3 2 1 2 3 5 7 8
2 3 4 2 0 2 2 1 3 4 4 3 3 4 5 6 6 9 13 13 10 8 6 6 11 14 17 19 19 17 17 17 16 16 16 16 15 14 13 13 13 12 13 14 16 18 20 22 23 25 27 29 30 29 29 28 28 28 27 28 28 29 29 30 30 29 28 25 24 23 23 23 22 22 20 19 17 15 14 13 13 12 11 10 9 8 6 5 4 3 2 1 3 4 6 9 11
4 4 6 5 3 4 3 4 1 2 3 4 4 5 7 6 5 9 12 12 9 7 6 8 14 15 14 14 14 15 17 17 16 16 15 14 13 13 12 12 12 11 11 11 12 13 15 16 17 19 21 24 26 27 27 27 27 27 27 27 28 29 30 30 29 28 26 25 24 24 25 24 23 22 20 18 17 15 15 14 14 13 11 10 9 7 6 5 4 3 2 3 5 7 9 11 12
Wind_Direction
235 291 343 331 338 341 334 355 33 354 62 93 326 141 234 217 185 154 159 167 40 26 78 105 121 127 122 127 140 113 94 146 159 146 184 164 137 147 153 148 151 150 145 141 138 134 128 135 143 132 124 122 123 127 129 131 129 129 129 128 128 124 119 110 92 81 91 107 111 110 108 108 111 113 112 111 107 106 104 102 100 99 102 103 105 107 119 125 107 90 86 82 78 79 80 81 84
215 235 343 332 343 340 310 15 50 342 38 46 280 170 265 318 132 181 200 188 143 121 100 99 101 99 98 109 111 88 66 53 170 147 136 138 137 144 149 147 150 150 150 146 143 141 133 138 142 133 130 129 131 133 132 134 133 133 135 135 136 131 124 111 84 86 100 111 114 114 111 110 115 117 111 107 104 104 102 100 97 96 97 95 96 95 100 103 98 93 88 83 82 82 79 79 80
205 187 354 336 341 348 352 30 61 65 50 279 270 247 285 148 188 211 203 149 133 123 104 96 83 75 92 100 76 72 80 41 152 137 134 143 144 145 146 148 151 151 153 145 141 139 135 144 144 138 138 136 136 136 136 138 138 140 144 142 142 138 131 120 93 97 111 118 121 120 120 120 120 116 108 105 103 100 97 99 100 100 99 97 96 95 98 100 97 93 87 85 85 82 81 80 76
190 139 4 337 346 4 60 47 106 120 164 225 250 267 222 177 200 215 161 137 135 129 114 97 70 58 79 92 77 80 93 125 145 139 142 150 148 146 145 148 153 152 149 140 138 137 140 150 149 146 144 142 142 141 141 144 145 149 149 148 148 147 144 140 122 119 126 121 119 119 119 122 119 112 105 100 101 99 95 96 100 103 102 101 100 100 103 103 97 91 87 85 83 81 81 81 75
203 116 38 330 5 11 76 61 93 108 234 194 179 264 236 192 187 183 154 149 158 167 150 114 90 78 77 72 70 97 114 135 143 143 144 149 150 147 145 149 153 150 145 137 136 140 145 154 154 151 150 150 149 146 148 149 153 155 152 155 156 153 149 138 132 136 137 123 113 112 109 113 116 112 103 95 94 96 94 94 95 99 99 100 101 102 103 102 96 89 87 86 84 82 79 77 72
205 92 44 22 68 38 91 86 243 217 238 168 159 247 217 197 177 158 150 158 162 147 135 112 113 108 80 55 76 111 119 138 147 146 143 146 150 147 147 151 153 149 144 138 137 143 147 156 160 158 156 156 156 155 154 152 158 162 159 161 161 154 145 138 133 132 133 126 115 110 105 107 112 112 104 93 91 91 91 93 93 94 96 97 98 100 100 98 94 88 86 87 87 83 78 69 63
187 96 38 74 72 23 100 168 226 240 243 173 178 202 186 194 172 149 140 140 133 129 119 114 116 108 86 72 96 109 111 144 149 144 144 146 149 148 150 152 153 150 144 141 139 142 149 159 166 167 163 160 161 163 158 152 159 168 168 165 165 156 144 144 136 123 120 120 114 107 102 103 108 109 103 94 92 90 88 88 89 91 93 95 97 101 100 98 95 90 87 88 88 82 74 64 58
163 110 65 94 54 21 92 192 247 218 231 215 217 183 178 181 166 154 150 145 141 130 121 125 120 101 97 120 123 124 115 140 147 147 149 150 151 150 153 155 156 152 145 141 140 141 147 159 166 170 171 169 167 165 161 156 160 165 167 166 167 160 146 144 137 123 113 112 111 105 101 104 108 109 104 97 95 92 89 88 87 88 91 94 98 100 100 99 97 93 91 89 87 79 68 59 51
135 104 74 91 128 26 33 316 285 237 258 262 227 180 179 175 166 156 140 122 134 136 132 138 124 111 149 124 123 140 130 137 149 152 155 156 155 152 155 159 161 154 146 139 140 143 143 151 159 169 177 181 177 170 166 162 167 165 161 166 164 152 141 138 136 130 119 116 114 107 103 106 109 110 107 100 97 95 92 91 88 87 89 92 93 93 94 95 96 94 91 88 83 74 61 52 44
107 86 102 81 115 19 334 298 293 261 267 265 200 183 180 175 174 166 136 123 139 138 140 147 116 125 142 117 120 144 140 141 155 157 159 161 156 156 160 161 165 158 148 141 139 143 143 145 149 164 178 188 187 180 175 168 173 174 164 161 155 139 132 132 134 132 125 121 119 115 112 111 112 113 110 102 98 97 94 91 90 91 90 91 91 90 91 91 93 92 89 88 81 66 54 44 37
87 65 102 78 75 158 246 258 278 271 286 304 211 192 183 178 174 163 135 128 146 144 148 148 116 127 127 113 139 154 150 147 163 160 158 162 158 161 166 164 167 163 153 144 141 143 143 146 145 154 172 191 195 189 185 179 178 179 170 159 149 136 129 129 129 119 114 116 115 112 110 109 113 115 111 104 97 94 94 93 92 93 92 90 90 88 87 87 86 86 86 85 75 59 47 38 32
94 29 78 93 139 192 207 221 270 289 319 328 197 195 185 182 173 161 142 139 151 147 159 161 146 138 113 94 157 165 161 151 167 165 158 161 162 166 170 169 168 167 160 151 147 146 144 148 149 153 161 181 195 192 190 189 187 183 171 158 145 134 128 125 118 105 107 112 109 108 107 106 111 113 110 103 97 94 94 94 92 90 88 86 85 85 83 83 80 80 81 77 66 55 44 34 29
102 129 87 123 184 156 175 195 273 319 331 257 192 188 186 189 192 174 149 141 149 140 169 174 157 146 109 147 163 175 170 159 168 171 162 159 166 170 173 173 172 171 167 162 157 152 149 150 154 159 158 152 166 177 185 191 193 189 169 152 138 129 125 119 108 102 108 111 107 108 109 110 112 114 110 104 98 96 96 94 94 91 87 84 82 82 81 81 80 79 77 73 63 54 45 36 30
76 136 107 139 168 125 158 164 259 169 252 247 183 186 188 200 206 175 150 136 157 148 165 174 163 150 124 147 171 185 176 167 170 173 167 159 166 171 175 177 177 177 173 171 167 161 157 153 157 160 161 152 148 158 169 179 185 180 161 147 136 128 124 116 109 107 110 111 110 111 113 114 114 115 112 107 100 96 96 94 93 91 88 84 81 79 79 80 80 79 75 71 64 55 48 42 36
61 85 95 114 37 350 179 180 178 161 225 221 170 185 184 204 206 174 157 147 167 162 156 165 166 154 166 175 189 188 177 172 173 174 171 162 168 174 177 180 181 184 181 179 175 172 167 159 160 159 161 159 156 158 159 162 163 162 154 146 135 128 126 119 116 115 114 113 114 116 116 118 116 116 115 111 106 101 100 96 92 90 88 84 81 78 77 78 77 76 72 67 60 54 47 43 40
25 56 74 88 245 268 213 184 123 136 236 200 165 177 172 201 190 171 167 159 149 155 158 165 173 176 196 189 202 184 173 174 176 175 174 168 172 176 178 183 186 188 187 187 183 181 177 169 164 162 162 160 160 160 157 156 153 152 146 139 133 130 128 121 121 119 119 119 119 120 118 119 117 116 114 111 110 108 106 100 96 92 88 85 81 78 75 75 74 72 68 63 57 51 45 40 37
352 49 72 89 193 210 206 180 165 168 224 204 171 174 165 173 182 174 174 167 153 157 168 177 183 199 215 204 221 182 174 176 179 178 176 175 178 179 181 185 190 191 192 192 190 188 186 181 172 167 166 163 162 159 155 153 148 146 139 133 131 130 130 126 126 123 123 125 125 127 124 124 122 118 114 112 113 113 111 106 102 96 90 86 81 77 73 71 69 66 62 57 53 47 42 37 33
330 103 104 184 190 202 188 179 191 169 184 192 178 177 170 163 176 172 157 162 153 159 181 188 189 207 219 215 200 181 177 177 182 182 180 181 184 185 187 190 193 195 195 195 195 194 192 189 183 177 175 170 168 164 159 156 150 148 140 134 132 130 132 129 130 127 126 130 133 135 134 133 129 126 122 119 119 117 117 110 105 99 91 86 81 77 71 66 61 57 52 45 42 36 32 29 24
329 119 122 218 204 214 199 182 192 190 186 182 178 181 178 174 172 164 158 168 156 157 182 188 193 203 201 196 185 179 179 182 185 187 186 187 190 191 193 194 196 198 199 200 199 198 196 195 192 187 184 181 178 174 170 166 161 156 148 142 139 137 137 135 135 134 135 138 140 142 143 142 137 135 131 128 128 124 119 112 107 102 95 87 80 75 67 61 53 44 37 29 24 19 16 15 13
284 140 198 238 221 241 248 224 217 222 195 174 177 184 180 176 172 169 171 176 181 187 178 178 191 192 185 182 181 181 181 185 188 191 192 193 196 199 200 200 200 202 203 204 204 202 199 198 198 196 193 191 189 186 182 179 174 169 165 157 154 153 150 149 147 143 147 147 146 149 150 150 146 142 138 137 134 129 126 118 112 102 96 86 68 62 55 49 40 29 20 12 7 4 1 0 359
298 174 202 235 196 255 269 260 245 232 201 182 172 169 177 174 172 176 168 156 232 222 195 190 192 184 180 180 183 184 184 187 191 194 196 198 200 204 208 209 207 207 207 206 208 208 205 203 201 201 201 198 197 197 194 191 188 184 181 178 176 175 173 172 168 162 161 161 155 157 162 161 159 155 150 148 144 140 135 131 127 110 96 82 44 21 17 15 9 5 357 352 351 349 347 345 345
312 251 247 259 242 256 285 290 253 216 192 182 167 165 176 169 174 185 173 167 221 217 207 205 200 191 189 187 185 187 188 189 193 196 199 201 204 207 211 213 211 210 209 209 211 212 211 208 205 205 206 205 203 205 205 204 203 199 198 198 196 194 193 194 195 191 184 186 184 181 188 189 187 185 179 168 163 159 154 157 163 169 242 324 338 336 336 335 335 335 332 332 334 333 333 330 330
324 274 282 281 266 253 287 304 254 204 180 177 178 178 171 162 184 195 187 196 213 217 214 209 206 205 201 191 186 188 191 193 196 199 202 204 207 210 212 214 215 214 215 215 214 214 214 212 211 210 210 211 208 207 210 212 213 212 212 212 212 212 212 212 214 213 209 206 206 214 219 220 222 223 221 205 191 195 201 206 220 255 267 277 295 308 313 316 317 317 317 317 319 319 319 319 320
66 257 287 291 278 267 282 295 269 206 186 184 182 178 172 172 185 193 200 208 214 229 218 209 207 204 197 190 189 193 196 199 202 204 206 208 210 213 215 218 221 220 221 221 218 217 217 216 215 214 213 214 213 211 212 215 217 218 219 218 219 220 222 224 226 227 225 221 218 222 228 231 235 239 241 237 226 219 224 236 247 264 271 274 283 293 300 304 306 306 306 307 310 312 312 313 313
114 252 294 298 283 279 284 287 262 206 192 185 179 181 183 184 178 191 209 211 213 230 216 208 205 197 194 194 195 197 199 202 205 207 208 211 213 215 218 221 223 223 223 223 221 220 219 218 218 218 215 214 216 217 217 216 216 219 221 221 222 224 226 229 232 234 234 234 231 232 236 240 243 244 247 250 246 240 240 249 254 259 267 273 278 283 287 292 295 298 299 301 303 304 307 307 308
348 309 311 306 289 289 290 286 252 206 202 186 180 188 185 184 182 217 219 211 211 226 217 206 202 196 195 199 201 200 201 203 205 208 210 211 213 216 218 220 224 225 225 226 225 223 220 220 220 220 219 217 217 220 221 221 220 220 222 221 223 226 228 232 236 239 240 242 242 244 247 250 252 249 249 251 250 252 254 259 261 260 266 273 276 276 277 280 282 285 286 289 291 293 297 298 300
319 317 313 300 284 284 281 290 239 198 208 198 185 181 182 182 193 244 221 206 207 218 212 202 200 199 199 202 205 204 205 206 207 209 210 212 214 217 219 220 223 225 226 226 226 224 222 222 223 223 223 222 221 222 224 225 225 224 224 222 223 226 229 233 238 242 245 247 249 250 253 255 257 255 254 255 252 253 258 263 265 263 267 270 272 271 272 274 274 275 277 279 283 286 288 290 294
314 313 315 301 282 275 258 256 210 188 198 204 184 117 247 172 226 238 208 197 205 210 204 200 200 202 202 205 207 208 209 209 209 210 211 213 215 217 219 220 223 225 227 227 227 225 222 223 225 225 225 226 226 226 226 226 228 228 226 226 227 228 231 233 235 240 245 251 254 254 255 256 258 258 258 259 258 256 257 259 261 263 266 267 268 268 269 271 272 275 278 282 285 286 288 291 292
309 300 306 307 335 302 250 216 199 195 195 195 163 71 282 240 233 233 203 196 201 203 202 199 200 204 204 206 209 210 212 210 210 212 215 217 219 219 220 221 223 225 227 229 229 227 224 224 227 228 228 229 229 229 228 228 230 230 230 230 231 232 233 234 234 237 242 247 253 256 257 257 258 259 259 259 258 257 257 257 258 260 262 263 265 267 268 272 274 277 281 284 286 288 292 294 293
309 290 218 305 4 322 249 191 181 190 200 179 156 205 259 243 234 231 206 199 198 198 202 200 202 205 205 207 210 213 214 212 212 215 218 219 221 223 223 223 223 224 226 228 229 229 227 225 227 230 230 230 230 230 230 230 231 232 232 232 233 236 237 237 236 236 237 239 246 251 254 257 259 260 260 260 259 258 258 258 258 258 259 261 263 265 266 268 270 275 282 286 289 290 290 290 291
321 300 248 32 128 272 279 193 163 167 214 181 156 224 253 252 241 231 217 205 200 201 204 204 205 206 208 209 211 215 216 216 218 220 220 221 222 224 225 224 224 224 224 225 227 228 229 227 227 228 229 231 230 229 230 229 230 232 233 234 234 236 239 239 238 238 238 239 242 245 250 254 257 260 260 260 260 259 258 258 259 259 260 261 262 263 265 268 271 274 278 282 284 284 286 289 291
349 272 289 353 160 259 306 247 179 171 198 182 159 231 255 270 256 230 219 210 203 207 209 209 210 210 211 213 214 217 220 220 222 223 223 223 223 224 225 225 225 224 223 223 225 226 228 228 228 228 228 230 230 230 230 229 231 233 234 236 237 238 239 239 239 241 242 243 244 246 251 255 256 258 259 259 260 261 261 260 259 259 261 264 266 269 271 275 277 277 277 278 283 288 295 301 300
350 207 247 292 165 233 311 274 215 186 124 185 196 235 246 270 278 221 213 211 206 209 213 212 213 215 215 216 218 220 222 223 224 225 226 225 224 225 225 225 226 226 225 224 224 225 226 227 228 228 228 230 232 232 232 231 232 234 236 238 240 240 240 240 240 243 245 246 249 252 256 259 259 258 258 259 260 261 262 263 264 265 268 271 275 279 281 281 282 282 283 289 300 302 299 301 306
282 242 224 233 184 193 264 281 250 189 109 204 224 243 243 257 306 268 210 209 207 212 218 217 216 217 218 219 221 223 225 225 227 229 228 228 228 226 226 226 226 227 228 227 226 226 227 228 229 229 228 229 231 233 234 234 234 236 238 240 242 243 242 241 241 243 246 249 252 256 259 262 263 263 262 264 266 266 266 266 268 268 268 270 271 274 278 280 284 287 290 299 305 300 294 296 306
187 195 205 231 206 205 230 254 232 163 135 207 210 241 257 266 284 297 229 209 209 217 222 223 222 220 220 222 223 225 227 229 232 233 233 232 232 230 229 227 227 227 228 228 228 228 228 229 229 229 228 226 227 231 233 235 236 237 238 239 240 241 241 240 241 243 246 249 252 255 259 263 265 267 268 270 273 273 271 269 271 272 274 276 270 266 270 274 279 282 284 289 291 291 293 301 311
160 176 160 176 197 230 227 240 254 171 165 218 211 227 247 256 262 266 247 214 217 227 231 232 231 227 225 225 226 228 230 235 239 237 236 236 234 234 232 230 229 229 228 229 229 228 228 228 228 228 228 227 227 228 230 231 233 235 236 237 237 237 237 238 239 242 245 247 250 253 255 260 263 267 270 275 278 277 278 279 281 280 281 287 281 273 279 283 281 281 282 286 293 296 297 302 307
204 181 184 197 192 261 248 243 295 198 175 228 217 226 246 249 258 264 246 219 223 234 239 238 236 233 231 228 230 232 235 241 244 241 240 239 238 236 234 233 231 230 229 229 229 228 228 227 228 229 228 229 229 228 228 228 229 230 232 233 234 236 237 239 240 241 244 247 249 251 253 255 258 263 268 274 279 281 285 287 287 283 282 292 292 288 302 304 292 286 288 291 301 307 304 300 304
241 235 258 260 194 248 258 241 307 347 174 248 227 232 258 254 260 269 244 214 226 232 235 237 236 234 235 233 234 236 240 245 245 245 244 241 239 237 235 234 232 231 230 229 229 229 229 229 229 230 230 232 232 232 231 231 231 231 233 234 237 240 242 245 247 248 250 251 251 252 253 254 254 256 259 264 268 270 275 276 279 281 280 290 296 291 301 310 310 308 298 289 292 303 309 310 314
237 237 247 262 220 249 278 253 300 24 169 264 280 221 258 261 260 259 232 226 240 239 235 238 238 236 237 236 237 240 242 245 246 247 246 242 241 238 236 236 234 234 232 231 231 230 230 230 230 231 231 233 234 234 234 235 236 237 239 242 243 247 249 252 255 257 256 254 252 250 250 250 252 253 252 253 256 258 262 264 269 274 272 277 283 279 286 298 306 312 311 299 288 295 309 313 315
231 225 218 246 225 197 278 266 269 46 106 212 155 232 266 269 278 271 239 236 247 250 245 244 244 243 242 240 241 243 243 245 247 248 247 243 241 239 236 235 234 235 234 232 231 230 231 231 232 232 232 234 235 236 237 238 241 243 246 247 248 249 249 250 251 251 249 246 245 244 243 246 250 253 251 250 255 256 257 260 268 280 282 282 276 272 281 291 289 286 295 307 296 297 306 304 303
232 213 204 225 221 206 228 274 274 33 4 87 103 324 293 259 266 271 247 237 245 251 248 245 246 245 247 247 245 245 246 247 248 249 249 247 244 243 240 238 236 235 234 233 231 231 232 232 234 234 234 236 237 237 239 240 241 242 243 244 244 243 242 241 241 239 238 237 238 240 243 247 249 252 251 248 251 252 255 263 271 278 280 281 279 279 285 288 282 276 279 294 298 298 304 303 304
246 224 208 216 225 220 210 205 84 79 297 294 111 274 285 284 264 254 257 266 254 251 244 242 246 246 246 248 246 244 246 247 249 251 252 250 248 246 244 242 239 237 235 234 234 233 234 235 235 236 237 237 238 239 240 240 241 241 242 241 238 237 235 235 236 236 237 238 241 245 247 248 249 251 250 247 249 251 257 266 267 269 270 273 280 284 281 274 271 279 281 282 282 284 290 296 301
244 228 204 213 222 201 166 169 146 157 238 283 91 190 258 313 287 250 267 317 277 263 254 246 246 246 244 244 244 244 245 247 248 250 250 249 248 247 246 245 244 242 238 235 236 235 235 235 236 236 237 237 238 239 239 240 240 241 242 242 240 239 238 237 239 241 243 244 247 247 244 244 245 247 247 247 250 250 254 260 264 273 272 268 268 266 267 267 264 278 279 270 272 277 281 285 288
243 225 178 188 199 193 183 177 189 212 220 318 22 144 233 286 263 261 308 307 286 280 269 254 246 244 244 244 244 245 246 246 246 246 247 247 246 248 249 249 249 250 247 240 238 237 236 236 237 237 237 237 237 237 238 239 240 242 243 243 243 243 243 244 246 247 249 250 249 245 241 239 240 243 246 248 251 250 250 253 255 257 255 254 254 254 263 273 274 277 276 270 274 279 277 277 278
247 205 140 154 172 182 181 171 189 272 176 274 306 136 205 268 270 304 345 265 273 271 258 251 243 241 243 245 246 247 247 246 246 247 246 245 245 247 251 252 251 251 249 245 241 239 239 239 238 238 237 237 237 237 238 239 241 244 245 246 246 245 246 247 248 248 248 248 248 246 244 242 242 243 247 251 254 252 248 249 252 255 254 254 256 257 260 266 266 267 268 270 274 273 273 273 273
220 144 97 83 77 73 107 151 144 55 207 237 244 184 209 266 275 301 332 246 252 257 254 248 245 243 244 248 250 251 250 248 248 248 246 245 245 246 250 251 249 246 246 246 243 240 240 240 239 239 239 238 239 239 240 240 242 244 246 247 247 246 247 247 248 247 246 245 244 245 246 246 247 248 250 254 258 259 258 257 260 266 268 263 263 264 257 253 258 262 264 269 271 273 280 283 282
140 119 88 68 51 55 58 64 97 108 252 246 242 218 198 261 272 238 218 227 218 227 250 255 256 256 255 257 261 260 256 251 247 246 246 244 244 245 247 249 248 245 244 244 243 241 240 240 240 240 240 241 241 241 241 242 243 245 246 247 246 246 246 247 249 249 247 245 244 244 247 248 251 253 255 257 261 266 265 264 265 268 269 264 264 269 266 261 263 267 272 277 279 283 293 300 302
133 117 125 104 32 35 32 1 59 193 247 260 256 223 176 229 259 241 239 260 231 214 235 251 264 278 281 279 281 273 263 257 248 244 244 243 243 244 246 247 247 245 243 242 242 241 240 240 240 241 241 241 242 242 242 242 243 244 244 245 245 246 247 248 249 251 250 249 247 247 247 248 251 254 259 262 263 262 259 258 259 258 258 259 263 269 271 270 270 276 285 292 296 304 314 320 319
157 141 147 150 187 122 203 250 236 224 243 274 266 190 207 234 252 261 268 274 257 231 232 244 259 275 283 288 297 288 267 259 251 243 242 242 242 244 245 246 245 244 242 240 240 239 240 240 240 241 241 241 242 242 242 242 242 242 242 243 243 244 245 247 248 250 250 249 249 249 249 249 252 258 263 263 258 252 249 248 246 244 244 251 259 264 269 274 277 285 294 303 325 340 340 341 346
179 164 164 170 157 161 204 226 296 259 255 284 273 224 256 270 262 251 248 255 256 247 248 257 264 270 276 279 288 293 278 263 255 246 242 241 242 243 244 245 244 243 242 239 238 237 237 238 239 241 242 243 243 243 242 242 242 242 242 242 243 244 244 245 247 247 246 247 248 249 251 252 256 261 262 256 248 241 238 236 233 234 237 241 250 256 257 259 259 264 283 325 346 352 358 1 358
198 187 159 169 164 171 201 202 201 236 261 283 278 232 202 203 247 245 244 261 271 268 262 263 266 268 270 271 272 276 278 272 257 248 243 240 240 241 242 243 243 243 241 239 237 235 235 236 238 240 242 243 244 244 243 243 242 242 242 242 242 243 244 245 246 245 243 244 245 247 248 250 256 259 254 244 236 230 227 226 224 226 227 227 231 232 230 229 230 229 220 213 246 0 11 9 6
215 162 135 188 186 153 146 173 176 176 240 268 243 232 214 209 270 277 270 278 279 270 263 261 263 268 265 261 262 262 262 260 251 244 240 238 239 240 242 243 243 242 240 239 237 235 235 236 238 240 241 243 244 245 245 244 244 243 243 243 242 241 242 242 242 241 240 240 241 244 247 250 253 250 240 231 224 220 217 215 214 213 210 210 211 211 213 213 209 205 196 190 172 43 23 21 17
163 126 191 226 162 117 119 191 104 94 212 256 210 245 286 312 290 293 306 298 279 266 261 257 259 266 261 255 254 252 249 246 243 238 234 235 238 241 244 245 245 244 242 240 239 238 238 238 239 241 241 242 243 244 244 244 243 243 242 242 240 239 238 238 237 236 236 236 237 240 243 246 244 235 226 219 213 210 206 203 201 200 199 200 201 203 203 199 196 192 182 173 158 93 41 24 14
137 175 200 199 81 97 120 176 43 77 224 267 330 227 275 314 265 307 334 297 272 265 257 257 261 262 258 255 252 248 244 237 236 234 232 236 241 245 249 249 248 248 245 244 242 241 241 240 241 241 242 243 242 243 243 243 242 241 240 239 237 236 235 234 234 234 234 234 235 239 242 239 231 222 216 209 205 201 197 194 193 193 196 196 197 197 194 192 188 185 180 171 158 88 39 13 0
153 189 182 153 173 210 150 167 179 170 223 274 314 266 256 203 221 296 306 265 259 267 267 258 255 250 250 254 251 243 238 233 233 234 235 241 246 248 250 250 250 249 248 246 243 242 241 240 240 240 241 241 241 242 242 241 240 238 237 236 233 231 230 230 230 230 231 233 236 239 237 228 218 211 206 200 197 194 191 191 190 192 195 194 194 192 190 190 186 186 191 181 55 9 0 348 344
44 109 181 163 169 187 179 163 164 171 212 252 296 303 264 224 215 232 249 249 247 258 267 250 248 252 254 258 255 244 238 236 237 239 243 247 251 253 252 253 253 250 247 244 241 241 241 240 240 239 239 239 238 238 238 238 236 233 231 229 227 227 226 226 227 228 230 233 236 234 225 216 207 201 198 194 191 189 187 189 190 192 194 192 193 193 193 196 195 202 220 273 337 343 340 333 333
117 151 186 211 74 137 167 160 127 140 175 202 250 278 262 245 215 203 228 247 243 234 244 254 263 269 269 268 264 253 244 243 244 245 250 255 256 259 261 261 259 253 249 246 243 243 243 242 242 241 239 237 235 234 233 233 232 229 226 224 223 223 223 225 227 229 232 232 229 221 211 204 198 194 193 189 186 185 185 190 191 191 193 194 197 199 201 205 208 221 250 294 318 325 326 326 326
170 184 189 185 154 112 163 222 199 116 167 172 185 252 263 250 213 203 221 239 240 227 230 255 271 278 282 282 275 262 250 246 248 250 255 258 259 261 264 265 265 261 256 253 249 247 244 242 241 239 237 235 233 232 230 229 228 226 224 223 223 222 223 226 228 228 228 222 215 206 199 195 192 190 187 184 184 185 187 190 192 194 197 200 202 205 209 212 212 227 266 293 311 318 320 321 320